Date String (YYYY-MM-DD hh:mm:ss) UTC,Instrument flags,Ambient pressure (hPa),Sample flow (lpm),Bypass flow (lpm),Sample temperature (°C),Ambient temperature (°C),ASC tube jacket temperature (°C),LED temperature (°C),Box temperature (°C),Sample RH (%),Span deviation,Mass concentration (μg/m³),Mass concentration (μg/m³),Mass concentration (μg/m³)
DateTimeUTC,F1_M11,P_M11,Q1_M11,Q2_M11,T1_M11,T2_M11,T3_M11,T4_M11,T5_M11,U1_M11,ZSPAN_M11,X2_M11,X0_M11,X1_M11
2023-01-30 17:00:00,,0825.5,5.00,0.00,22.6,21.0,00.0,31.6,24.3,03.8,0001.8,0007.14,0010.51,0006.47
2023-01-30 17:01:00,,0825.5,5.03,0.00,22.6,20.9,00.0,31.5,24.2,03.9,0001.7,0007.16,0010.58,0006.48
2023-01-30 17:02:00,,0825.5,5.01,0.00,22.6,21.6,00.0,31.5,24.4,03.9,0001.6,0007.21,0010.75,0006.49
2023-01-30 17:03:00,,0825.5,4.99,0.00,22.8,22.8,00.0,31.5,24.7,03.9,0001.4,0007.24,0010.87,0006.49
2023-01-30 17:04:00,,0825.5,5.00,0.00,22.8,22.9,00.0,31.5,24.8,03.9,0001.7,0007.27,0010.97,0006.50
2023-01-30 17:05:00,,0825.5,5.00,0.00,22.8,22.5,00.0,31.6,24.7,03.8,0002.0,0007.26,0010.89,0006.51
2023-01-30 17:06:00,,0825.6,4.99,0.00,22.8,22.1,00.0,31.6,24.6,03.8,0001.9,0007.25,0010.90,0006.50
2023-01-30 17:07:00,,0825.5,4.99,0.00,22.8,21.8,00.0,31.6,24.5,03.8,0001.6,0007.25,0010.91,0006.49
2023-01-30 17:08:00,,0825.4,5.01,0.00,22.8,21.6,00.0,31.6,24.4,03.9,0001.6,0007.24,0010.90,0006.49
2023-01-30 17:09:00,,0825.5,4.99,0.00,22.7,21.3,00.0,31.6,24.3,03.8,0001.8,0007.24,0010.97,0006.49
2023-01-30 17:10:00,,0825.5,5.00,0.00,22.7,21.2,00.0,31.6,24.3,03.8,0001.8,0007.26,0011.15,0006.48
2023-01-30 17:11:00,,0825.5,5.00,0.00,22.7,21.0,00.0,31.6,24.3,03.8,0001.6,0007.29,0011.59,0006.49
2023-01-30 17:12:00,,0825.5,5.00,0.00,22.6,20.9,00.0,31.6,24.2,03.8,0001.8,0007.32,0011.69,0006.50
2023-01-30 17:13:00,,0825.5,5.01,0.00,22.6,21.3,00.0,31.5,24.3,03.8,0002.1,0007.31,0011.70,0006.50
2023-01-30 17:14:00,,0825.6,5.00,0.00,22.7,22.4,00.0,31.5,24.6,03.8,0002.1,0007.29,0011.63,0006.49
2023-01-30 17:15:00,,0825.6,4.99,0.00,22.8,22.9,00.0,31.5,24.8,03.7,0002.0,0007.25,0011.45,0006.49
2023-01-30 17:16:00,,0825.7,5.00,0.00,22.8,22.5,00.0,31.6,24.7,03.7,0001.5,0007.23,0011.42,0006.48
2023-01-30 17:17:00,,0825.7,5.00,0.00,22.8,22.1,00.0,31.6,24.6,03.8,0001.6,0007.28,0011.53,0006.49
2023-01-30 17:18:00,,0825.6,5.01,0.00,22.8,21.8,00.0,31.6,24.5,03.8,0002.0,0007.26,0011.52,0006.47
2023-01-30 17:19:00,,0825.5,4.98,0.00,22.8,21.5,00.0,31.6,24.4,03.8,0002.0,0007.24,0011.50,0006.45
2023-01-30 17:20:00,,0825.5,5.00,0.00,22.7,21.3,00.0,31.6,24.3,03.7,0001.4,0007.21,0011.50,0006.44
2023-01-30 17:21:00,,0825.5,5.01,0.00,22.7,21.1,00.0,31.6,24.3,03.7,0001.2,0007.14,0011.64,0006.42
2023-01-30 17:22:00,,0825.6,5.03,0.00,22.6,21.0,00.0,31.6,24.2,03.7,0000.8,0007.13,0011.27,0006.43
2023-01-30 17:23:00,,0825.6,4.99,0.00,22.6,21.0,00.0,31.6,24.2,03.7,0000.7,0007.11,0011.17,0006.41
2023-01-30 17:24:00,,0825.6,5.00,0.00,22.7,21.7,00.0,31.5,24.4,03.7,0000.8,0007.11,0011.15,0006.40
2023-01-30 17:25:00,,0825.5,5.01,0.00,22.8,22.7,00.0,31.5,24.7,03.7,0001.2,0007.13,0011.12,0006.41
2023-01-30 17:26:00,,0825.6,4.99,0.00,22.9,22.7,00.0,31.6,24.8,03.8,0001.5,0007.14,0011.17,0006.40
2023-01-30 17:27:00,,0825.5,5.02,0.00,22.8,22.3,00.0,31.6,24.7,03.7,0001.6,0007.17,0011.24,0006.42
2023-01-30 17:28:00,,0825.5,4.99,0.00,22.8,22.0,00.0,31.6,24.6,03.8,0002.0,0007.18,0011.24,0006.42
2023-01-30 17:29:00,,0825.5,5.01,0.00,22.8,21.7,00.0,31.6,24.5,03.7,0002.0,0007.21,0011.32,0006.43
2023-01-30 17:30:00,,0825.6,5.01,0.00,22.7,21.4,00.0,31.6,24.4,03.8,0001.8,0007.26,0011.45,0006.46
2023-01-30 17:31:00,,0825.5,4.99,0.00,22.7,21.2,00.0,31.6,24.3,03.8,0002.3,0007.28,0011.46,0006.48
2023-01-30 17:32:00,,0825.5,4.99,0.00,22.7,21.1,00.0,31.6,24.3,03.8,0002.3,0007.30,0011.21,0006.49
2023-01-30 17:33:00,,0825.5,5.01,0.00,22.6,20.9,00.0,31.6,24.2,03.8,0002.4,0007.37,0011.20,0006.53
2023-01-30 17:34:00,,0825.6,5.00,0.00,22.6,20.9,00.0,31.6,24.2,03.8,0002.3,0007.37,0011.18,0006.54
2023-01-30 17:35:00,,0825.6,5.00,0.00,22.6,21.5,00.0,31.5,24.3,03.8,0002.2,0007.36,0011.10,0006.56
2023-01-30 17:36:00,,0825.6,5.00,0.00,22.7,22.5,00.0,31.5,24.6,03.8,0001.9,0007.37,0011.11,0006.59
2023-01-30 17:37:00,,0825.5,5.01,0.00,22.8,23.4,00.0,31.5,24.9,03.8,0002.0,0007.41,0011.13,0006.62
2023-01-30 17:38:00,,0825.5,5.00,0.00,22.9,23.0,00.0,31.6,24.9,03.8,0002.1,0007.44,0011.15,0006.65
2023-01-30 17:39:00,,0825.5,5.03,0.00,22.9,22.5,00.0,31.6,24.7,03.8,0002.1,0007.48,0011.23,0006.67
2023-01-30 17:40:00,,0825.4,4.99,0.00,22.9,22.1,00.0,31.6,24.6,03.8,0002.1,0007.48,0011.13,0006.70
2023-01-30 17:41:00,,0825.4,4.99,0.00,22.8,21.7,00.0,31.6,24.5,03.9,0002.4,0007.47,0011.03,0006.71
2023-01-30 17:42:00,,0825.4,5.02,0.00,22.8,21.4,00.0,31.6,24.4,03.9,0002.2,0007.50,0011.04,0006.74
2023-01-30 17:43:00,,0825.4,4.98,0.00,22.7,21.1,00.0,31.6,24.4,03.8,0002.6,0007.57,0011.24,0006.79
2023-01-30 17:44:00,,0825.4,5.00,0.00,22.7,20.9,00.0,31.6,24.3,03.9,0002.8,0007.55,0011.16,0006.80
2023-01-30 17:45:00,,0825.5,5.00,0.00,22.6,20.8,00.0,31.6,24.2,03.9,0003.0,0007.55,0011.13,0006.82
2023-01-30 17:46:00,,0825.4,5.00,0.00,22.6,20.8,00.0,31.6,24.2,03.9,0003.2,0007.58,0011.16,0006.84
2023-01-30 17:47:00,,0825.3,5.00,0.00,22.6,21.1,00.0,31.5,24.3,03.9,0003.2,0007.54,0011.06,0006.84
2023-01-30 17:48:00,,0825.4,5.02,0.00,22.7,22.2,00.0,31.5,24.5,04.0,0002.9,0007.52,0011.06,0006.83
2023-01-30 17:49:00,,0825.5,4.99,0.00,22.8,22.9,00.0,31.5,24.7,03.9,0003.0,0007.50,0011.05,0006.83
2023-01-30 17:50:00,,0825.4,5.03,0.00,22.8,22.4,00.0,31.6,24.7,03.9,0003.2,0007.47,0010.97,0006.82
2023-01-30 17:51:00,,0825.4,4.99,0.00,22.8,22.0,00.0,31.6,24.6,03.9,0003.2,0007.45,0012.15,0006.81
2023-01-30 17:52:00,,0825.4,4.99,0.00,22.7,21.6,00.0,31.6,24.4,03.9,0002.7,0007.44,0012.59,0006.82
2023-01-30 17:53:00,,0825.5,4.98,0.00,22.7,21.3,00.0,31.6,24.3,03.9,0002.2,0007.44,0012.60,0006.81
2023-01-30 17:54:00,,0825.4,5.00,0.00,22.6,21.1,00.0,31.6,24.2,03.9,0001.9,0007.38,0012.37,0006.77
2023-01-30 17:55:00,,0825.4,5.01,0.00,22.6,20.9,00.0,31.6,24.2,03.9,0001.8,0007.37,0012.38,0006.76
2023-01-30 17:56:00,,0825.4,4.99,0.00,22.6,20.8,00.0,31.5,24.1,03.9,0001.2,0007.31,0012.28,0006.72
2023-01-30 17:57:00,,0825.4,5.01,0.00,22.5,20.7,00.0,31.5,24.1,03.9,0000.5,0007.27,0012.24,0006.69
2023-01-30 17:58:00,,0825.5,5.03,0.00,22.5,21.4,00.0,31.5,24.2,03.9,0000.4,0007.29,0012.33,0006.68
2023-01-30 17:59:00,,0825.5,4.96,0.00,22.6,22.5,00.0,31.5,24.6,03.9,0000.4,0007.30,0012.33,0006.66
